Regional Weather Roundup
Issued by NWS

Home | Current Version | Previous Version | Text Only | Print | Product List | Glossary Off
Versions: 1 2 3 4 5 6 7 8 9 10 11 12 13 14 15 16 17 18 19 20 21 22 23 24 25 26 27 28 29 30 31 32 33 34 35 36 37 38 39 40 41 42 43 44 45 46 47 48 49 50

000
ASUS43 KBIS 282310
RWRND

NORTH DAKOTA REGIONAL WEATHER ROUNDUP
NATIONAL WEATHER SERVICE BISMARCK ND
600 PM CDT THU AUG 28 2014

NOTE: "FAIR" INDICATES FEW OR NO CLOUDS BELOW 12,000 FEET WITH NO
SIGNIFICANT WEATHER AND/OR OBSTRUCTIONS TO VISIBILITY.


NDZ001>003-009>011-017-290000-
NORTHWEST NORTH DAKOTA

CITY           SKY/WX    TMP DP  RH WIND       PRES   REMARKS
WILLISTON      PTSUNNY   90  54  29 S10       29.77F
MINOT          MOSUNNY   85  57  38 S12       29.78F
MINOT AFB      SUNNY     85  60  42 S12       29.77F
$$

NDZ018>021-031>035-040>046-290000-
SOUTHWEST NORTH DAKOTA

CITY           SKY/WX    TMP DP  RH WIND       PRES   REMARKS
BISMARCK       CLOUDY    75  67  76 SE9       29.86S
DICKINSON      MOSUNNY   84  54  35 NW6       29.84F
GARRISON         N/A     81  64  56 S8        29.82F
HETTINGER ARPT PTSUNNY   80  54  40 S7        29.88F
$$

NDZ004>008-012>016-024-026-027-054-290000-
NORTHEAST NORTH DAKOTA

CITY           SKY/WX    TMP DP  RH WIND       PRES   REMARKS
GRAND FORKS    PTSUNNY   73  66  78 S14       29.86F
GRND FRKS AFB  PTSUNNY   73  69  88 S13       29.86F
DEVILS LAKE    PTSUNNY   77  64  65 S14       29.82F
$$

NDZ022-023-025-028>030-036>039-047>053-290000-
SOUTHEAST NORTH DAKOTA

CITY           SKY/WX    TMP DP  RH WIND       PRES   REMARKS
FARGO          CLOUDY    70  64  81 SE13      29.89F
JAMESTOWN      CLOUDY    69  65  86 SE12      29.87S
$$



USA.gov is the U.S. government's official web portal to all federal, state and local government web resources and services.